035  
ASUS44 KCRP 231410  
HRRCRP  
 
SOUTH TEXAS REGIONAL WEATHER ROUNDUP  
NATIONAL WEATHER SERVICE CORPUS CHRISTI TX  
900 AM CDT SAT SEP 23 2017  
 
TXZ229>244-231500-   
..CORPUS CHRISTI AREA OBSERVATIONS
 
 
 
CITY SKY/WX TMP DP RH WIND PRES REMARKS  
CORPUS CHRISTI MOSUNNY 81 77 88 E6 29.88R  
NAS CORPUS CHR MOSUNNY 86 77 74 SE13 29.87S HX 97  
ROCKPORT NOT AVBL  
KINGSVILLE ARP FAIR 80 79 96 E3 29.88S  
KINGSVILLE NAS SUNNY 83 78 85 E7 29.88R HX 93  
ALICE NOT AVBL  

 
   
..VICTORIA AREA OBSERVATIONS
 
 
 
CITY SKY/WX TMP DP RH WIND PRES REMARKS  
PORT LAVACA PTSUNNY 80 75 83 E5 29.91  
VICTORIA MOSUNNY 79 75 87 E5 29.92R  
BEEVILLE FAIR 79 78 98 E5 29.90S  
PLEASANTON MOSUNNY 75 73 91 E6 29.92S  
SAN ANTONIO PTSUNNY 75 72 90 SE8 29.95R  

 
   
..LAREDO AREA OBSERVATIONS
 
 
 
CITY SKY/WX TMP DP RH WIND PRES REMARKS  
LAREDO NOT AVBL  
DEL RIO NOT AVBL  
MCALLEN SUNNY 83 75 77 SE10 29.86S HX 90  
HEBBRONVILLE SUNNY 76 73 92 SE9 29.90R  

 
   
..OTHER TEXAS OBSERVATIONS
 
 
 
CITY SKY/WX TMP DP RH WIND PRES REMARKS  
BROWNSVILLE SUNNY 82 79 89 E6 29.87R HX 93  
HOUSTON MOSUNNY 78 75 90 NE5 29.93S  
COL. STATION NOT AVBL  
AUSTIN FOG 73 73 100 SE3 29.95R VSB 1/2  
WACO PTSUNNY 75 71 87 S9 29.96R  
FORT WORTH SUNNY 79 71 76 S5 29.94R  
WICHITA FALLS SUNNY 73 68 84 S7 29.95R  
LUBBOCK CLOUDY 70 64 81 S16 29.95R  
EL PASO CLOUDY 72 60 66 SE10 29.86R  

 
   
..MARINE OBSERVATIONS
 
 
 
STATION/POSITION TIME SKY/WX TEMP WIND PRES VSBY WAVE SWELL  
AIR SEA DIR/SP/G HT/PER HT/PER  
(UTC) (F) (DEG/KT/KT) (MB) (MI) (FT/S) (FT/S)  
PORT ARANSAS NOT AVBL  
BUOY 90 E PORT A 1250 82 84 90/ 12/ 14 1012.0 3/ 6 2/ 6  
BUOY 200 E PT IS 1350 84 85 120/ 12/ 14 1011.7R 2/ 5 2/ 6  
BUOY 15 E GALVES 1250 82 82 110/ 10/ 10 1012.9 2/ 6 2/ 6  

 
 
 
CLICK HERE TO GO TO PREVIOUS BULLETINS.

The Nexlab TX Page Main Text Page